Location: Chantelle
(46.2359°N, 3.1521°E)
Time: 22:57:28
(UTC+00:00)

Daily predictions for brighter satellites

Satellite Brightness Start Highest point End
(mag) Time Altitude Azimuth Time Altitude Azimuth Time Altitude Azimuth
USA 215 4.4 17:05:42 10° SSE 17:11:59 47° SW 17:18:16 10° WNW
Falcon 9 debris 3.1 17:12:59 10° WNW 17:16:26 72° NNE 17:19:53 10° ESE
SJ 16-02 3.3 17:15:55 10° NE 17:17:00 11° NE 17:18:04 10° ENE
Cosmos 1271 Rocket 4.0 17:13:28 10° NNW 17:17:20 48° W 17:21:11 10° S
SMAP 3.3 17:13:43 10° S 17:18:23 81° WSW 17:23:04 10° NNW
CORIOLIS 4.2 17:14:07 10° SSE 17:19:28 86° ENE 17:24:53 10° NNW
Cosmos 2058 Rocket 3.0 17:15:31 10° S 17:19:51 74° E 17:24:13 10° NNE
Abrixas rocket 2.1 17:18:20 10° WSW 17:21:24 76° NNW 17:24:29 10° ENE
Cosmos 1300 4.3 17:19:08 10° SE 17:21:30 16° E 17:23:51 10° NE
Unknown 3.2 17:19:58 10° NW 17:23:29 65° NNE 17:26:59 10° ESE
NOAA 12 4.1 17:19:57 10° SSE 17:25:13 71° ENE 17:30:31 10° N
Envisat 3.1 17:20:32 10° SSE 17:25:29 55° ENE 17:30:27 10° N
COBE Rocket 4.2 17:20:35 10° NNE 17:25:36 51° E 17:30:27 10° S
Cosmos 1328 3.8 17:25:36 10° N 17:29:35 87° W 17:33:31 10° S
Cosmos 1356 3.6 17:27:45 10° SSW 17:31:10 75° WNW 17:34:38 10° N
H-2A R/B 3.3 17:28:27 10° S 17:32:20 67° WSW 17:36:17 10° NNW
COSMO-SKYMED 1 3.0 17:28:27 10° NNE 17:32:34 40° E 17:36:39 10° SSE
Cosmos 2082 Rocket 2.3 17:30:04 10° NNW 17:35:42 57° ENE 17:41:17 10° SE
USA 238 DEB 3.8 17:30:40 10° SSW 17:37:13 60° ESE 17:43:59 10° NE
USA 238 3.8 17:30:47 10° SSW 17:37:20 60° ESE 17:44:05 10° NE
Cosmos 1844 Rocket 4.5 17:34:23 10° WSW 17:39:18 30° NW 17:44:14 10° N
Cosmos 2058 4.0 17:36:41 10° NNE 17:40:07 23° ENE 17:43:32 10° SE
H-2A R/B 4.0 17:40:42 10° ENE 17:41:37 11° NE 17:42:42 10° NE
Unknown 3.8 17:40:00 10° NW 17:43:37 46° NNE 17:46:21 16° E
Unknown 3.2 17:41:03 10° WNW 17:44:33 83° SSW 17:47:59 11° SE
Cosmos 1339 Rocket 4.4 17:38:57 10° S 17:44:59 69° E 17:51:09 10° NNE
Cosmos 1076 Rocket 4.0 17:42:33 10° N 17:46:37 37° ENE 17:50:38 10° SE
Okean-O 3.4 17:46:27 10° S 17:50:48 57° W 17:55:13 10° NNW
Cosmos 1939 Rocket 3.9 17:47:35 10° SE 17:50:57 26° ENE 17:54:23 10° N
Cosmos 1726 3.2 17:47:30 10° SSW 17:51:01 46° WNW 17:54:34 10° N
ATLAS 5 CENTAUR R/B 4.1 17:53:22 10° WNW 17:56:17 16° NNW 17:59:27 10° NNE
SKYMED 3 4.5 17:52:15 10° NNE 17:56:36 72° ESE 18:00:56 10° S
NOSS 3-2 (A) 3.4 17:53:21 10° SSW 17:59:03 68° ESE 18:05:31 10° NE
Cosmos 1605 Rocket 4.1 17:54:31 10° N 18:00:43 81° W 18:06:48 10° S
Cosmos 2151 4.2 17:58:53 10° NNE 18:02:12 21° ENE 18:02:29 21° ENE
Okean 3 Rocket 4.5 17:59:52 10° NNE 18:03:46 28° ENE 18:05:52 20° ESE
Ariane Rocket 3.4 18:03:31 10° SE 18:08:14 39° ENE 18:12:58 10° N
Cosmos 1812 Rocket 3.5 18:04:16 10° S 18:08:41 72° E 18:13:10 10° NNE
Meteor 2-1 Rocket 4.5 18:05:13 10° SSE 18:10:21 42° E 18:15:35 10° NNE
Cosmos 1908 4.5 18:07:09 10° SSW 18:10:52 44° WNW 18:14:37 10° N
ADEOS Rocket 4.4 18:07:15 10° NE 18:12:41 21° E 18:13:05 21° E
Cosmos 1727 Rocket 3.9 18:09:03 10° S 18:15:12 81° E 18:21:24 10° N
ASTEX 1 4.2 18:11:07 10° N 18:15:58 56° W 18:20:50 10° SSW
Cosmos 2278 Rocket 3.0 18:10:43 10° SW 18:16:15 54° WNW 18:21:51 10° NNE
YAOGAN 6 3.0 18:12:53 10° S 18:16:30 64° W 18:20:05 10° NNW
Cosmos 2173 Rocket 4.0 18:10:43 10° N 18:16:50 54° ENE 18:22:49 10° SSE
YAOGAN 1 2.6 18:15:18 10° SSE 18:19:37 83° WSW 18:24:00 10° NNW
Cosmos 990 Rocket 4.1 18:15:14 10° NNW 18:20:21 52° ENE 18:23:48 20° SE
Lacrosse 5 2.6 18:15:46 10° WNW 18:20:40 51° SW 18:25:33 10° SSE
SKYMED 2 4.0 18:16:23 10° N 18:20:42 65° WNW 18:24:59 10° SSW
CSL-04 Rocket 3.8 18:16:05 10° SSE 18:21:36 82° WSW 18:27:06 10° NNW
Cosmos 2297 3.7 18:16:51 10° S 18:22:27 61° ESE 18:28:06 10° NNE
Cosmos 1937 Rocket 3.8 18:18:17 10° N 18:23:11 42° ENE 18:25:12 29° ESE
CZ-4 R/B 2.3 18:21:43 10° S 18:25:50 53° W 18:30:00 10° NNW
NOSS 3-2 (C) 3.3 18:20:28 10° SSW 18:26:10 69° ESE 18:31:43 14° NE
BREEZE-M DEB (TANK) 3.1 18:16:06 10° WSW 18:26:44 69° SSE 18:28:17 36° E
Unknown 3.5 18:23:19 10° NW 18:27:07 59° NNE 18:27:57 46° ENE
ARGOS 4.4 18:27:50 22° NE 18:27:50 22° NE 18:31:25 10° NNE
Unknown 4.5 18:25:57 10° NW 18:29:51 37° NNE 18:30:47 32° NE
Cosmos 1802 Rocket 4.1 18:25:02 10° N 18:31:24 58° ENE 18:37:39 10° SSE
Starlink (trailer) 4.4 18:27:37 10° NW 18:31:31 37° NNE 18:32:23 33° NE
Cosmos 2123 Rocket 4.4 18:25:57 10° SSE 18:31:35 36° E 18:37:13 10° NNE
Cosmos 1570 Rocket 4.4 18:28:03 10° S 18:33:01 41° ESE 18:34:59 30° ENE
Unknown 4.4 18:29:19 10° NW 18:33:12 38° NNE 18:34:00 34° NE
Unknown 4.4 18:31:01 10° NW 18:34:55 38° NNE 18:35:38 35° NE
USA 116 3.8 18:32:36 10° N 18:35:52 62° WNW 18:39:26 10° SSW
ATLAS CENTAUR R/B 3.4 18:33:22 10° N 18:36:02 16° NNE 18:36:02 16° NNE
Cosmos 1000 Rocket 4.4 18:31:07 10° S 18:37:15 66° E 18:43:28 10° NNE
Cosmos 1892 3.7 18:35:17 10° N 18:37:37 31° NNE 18:37:37 31° NNE
Cosmos-2242 3.0 18:35:39 10° S 18:39:53 55° E 18:44:08 10° NNE
Unknown 4.3 18:35:59 10° NW 18:39:54 40° NNE 18:40:24 38° NE
Cosmos 1725 Rocket 4.2 18:35:18 10° N 18:41:21 46° ENE 18:43:50 32° SE
Unknown 4.3 18:37:36 10° NW 18:41:32 40° NNE 18:41:57 39° NNE
Cosmos 44 3.2 18:37:49 10° SW 18:42:45 85° NW 18:45:15 28° NNE
Unknown 4.3 18:39:17 10° NW 18:43:13 40° NNE 18:43:33 40° NNE
NOAA 11 4.1 18:38:38 10° SSE 18:44:05 86° W 18:49:33 10° NNW
Cosmos 1833 Rocket 4.5 18:39:12 10° NW 18:44:06 31° WSW 18:48:59 10° SSW
Unknown 4.2 18:40:55 10° NW 18:44:54 41° NNE 18:45:11 41° NNE
Cosmos 1763 Rocket 3.5 18:39:46 10° S 18:44:56 56° ESE 18:47:27 29° NE
Unknown 4.2 18:42:35 10° NW 18:46:33 42° NNE 18:46:45 41° NNE
SL-27 R/B 4.4 18:43:57 10° N 18:45:03 19° N 18:45:03 19° N
Cosmos 2100 Rocket 3.9 18:41:27 10° N 18:47:39 85° W 18:53:47 10° S
Unknown 4.2 18:44:21 10° NW 18:48:20 43° NNE 18:48:27 43° NNE
ATLAS 3B R/B 2.5 18:41:58 10° SSW 18:48:38 67° ESE 18:52:29 26° NE
Cosmos 2208 Rocket 4.3 18:45:27 10° S 18:49:40 44° SE 18:49:40 44° SE
Unknown 4.2 18:47:37 10° NW 18:51:34 43° NNE 18:51:34 43° NNE
BREEZE-M DEB (TANK) 2.9 18:48:08 10° WSW 18:51:06 50° W 18:51:06 50° W
Unknown 4.2 18:47:40 10° NW 18:51:38 44° NNE 18:51:38 44° NNE
Unknown 4.2 18:49:16 10° NW 18:53:09 44° NNE 18:53:09 44° NNE
CENTAUR R/B 2.4 18:48:18 10° SSW 18:54:14 76° SE 18:58:23 25° NE
SJ 16-02 1.1 18:51:59 10° NNW 18:56:24 78° ENE 18:56:28 77° E
Unknown 3.6 18:52:30 10° WNW 18:56:04 69° NNW 18:56:04 69° NNW
Unknown 4.3 18:52:30 10° NW 18:56:16 44° N 18:56:16 44° N
Cosmos 1300 4.1 18:53:14 10° SSW 18:56:49 39° WNW 19:00:26 10° N
Abrixas rocket 3.6 18:54:26 10° WNW 18:56:26 34° WNW 18:56:26 34° WNW
Unknown 4.3 18:55:55 10° NW 18:59:33 45° N 18:59:33 45° N
Unknown 4.3 18:57:34 10° NW 19:01:07 45° N 19:01:07 45° N
Cosmos 2016 Rocket 3.9 18:55:53 10° N 19:02:13 81° E 19:07:42 15° SSE
Unknown 4.3 18:59:14 10° NW 19:02:44 45° N 19:02:44 45° N
Unknown 4.3 19:00:56 10° NW 19:04:22 45° N 19:04:22 45° N
SPOT 3 Rocket 4.0 19:05:59 44° NE 19:05:59 44° NE 19:10:00 10° N
Unknown 4.4 19:04:15 10° NW 19:07:32 44° NNW 19:07:32 44° NNW
Cosmos 2369 Rocket 4.2 19:03:20 10° S 19:04:06 14° S 19:04:06 14° S
Unknown 4.4 19:05:58 10° NW 19:09:12 44° NNW 19:09:12 44° NNW
SL-08 R/B 4.3 19:05:35 10° N 19:11:43 80° E 19:13:56 42° SSE
Cosmos 1898 Rocket 4.2 19:11:41 10° NNW 19:16:48 52° WSW 19:19:54 23° S
Cosmos 2082 Rocket 4.3 19:14:53 10° NW 19:19:23 24° WSW 19:23:50 10° SSW
MOS 1 4.3 19:17:41 41° S 19:19:48 79° WSW 19:25:29 10° NNW
H-2A R/B 2.7 19:21:20 45° NNE 19:21:20 45° NNE 19:25:17 10° N
Cosmos 1943 Rocket 3.7 19:18:43 10° S 19:20:37 22° S 19:20:37 22° S
Cosmos 1766 Rocket 4.2 19:20:37 10° NNW 19:24:13 51° NW 19:24:13 51° NW
Cosmos 2151 4.4 19:35:38 10° NNW 19:39:06 36° WNW 19:39:06 36° WNW
ATLAS 5 CENTAUR R/B 4.4 19:41:06 10° NNW 19:43:12 12° N 19:43:20 12° N
ADEOS Rocket 3.4 19:51:27 10° NNE 19:59:06 84° WNW 19:59:59 71° SW
ARGOS 4.5 20:09:22 35° NW 20:09:22 35° NW 20:12:32 10° NNW
ATLAS CENTAUR R/B 4.3 20:11:35 10° NW 20:12:14 14° NNW 20:12:14 14° NNW
ATLAS 3B R/B 3.9 20:33:43 10° W 20:39:46 35° NW 20:39:46 35° NW
CENTAUR R/B 4.0 20:39:56 10° W 20:45:37 33° NNW 20:45:37 33° NNW
